| time (UTC) | temp C | wind direction | speed KPH | gust KPH | rain 1hr cm | rain 24hr cm | rain mn cm | humidity % | barometer mb |
| 20260504081759 | 8 | 218 | 0.0 | 0.0 | 0.00 | 0.03 | 0.00 | 80 | 1002.3 |
| 20260504080757 | 8 | 218 | 0.0 | 0.0 | 0.00 | 0.03 | 0.00 | 79 | 1002.4 |
| 20260504080241 | 9 | 218 | 0.0 | 0.0 | 0.00 | 0.03 | 0.00 | 78 | 1002.4 |
| 20260504070129 | 10 | 218 | 0.0 | 0.0 | 0.00 | 0.03 | 0.00 | 77 | 1003.3 |
| 20260504050428 | 12 | 241 | 0.0 | 3.2 | 0.00 | 0.03 | 0.00 | 72 | 1004.2 |
| 20260504045428 | 12 | 243 | 0.0 | 3.2 | 0.00 | 0.03 | 0.03 | 71 | 1004.1 |
| 20260504044928 | 12 | 248 | 0.0 | 4.8 | 0.00 | 0.03 | 0.03 | 72 | 1004.1 |
| 20260504044428 | 12 | 248 | 0.0 | 4.8 | 0.00 | 0.03 | 0.03 | 71 | 1004.1 |
| 20260504043928 | 12 | 269 | 0.0 | 3.2 | 0.00 | 0.03 | 0.03 | 72 | 1004.0 |
| 20260504043429 | 12 | 274 | 0.0 | 3.2 | 0.00 | 0.03 | 0.03 | 72 | 1004.0 |
| 20260504042926 | 12 | 300 | 0.0 | 1.6 | 0.00 | 0.03 | 0.03 | 72 | 1004.0 |
| 20260504042428 | 12 | 308 | 0.0 | 0.0 | 0.00 | 0.03 | 0.03 | 72 | 1004.1 |
| 20260504041928 | 12 | 312 | 0.0 | 0.0 | 0.00 | 0.03 | 0.03 | 72 | 1004.1 |
| 20260504041427 | 12 | 315 | 0.0 | 1.6 | 0.00 | 0.03 | 0.03 | 72 | 1004.0 |
| 20260504040428 | 12 | 325 | 0.0 | 0.0 | 0.00 | 0.03 | 0.03 | 72 | 1004.1 |
| 20260504035928 | 12 | 326 | 0.0 | 0.0 | 0.00 | 0.03 | 0.03 | 72 | 1004.1 |
| 20260504035428 | 12 | 326 | 0.0 | 0.0 | 0.00 | 0.03 | 0.03 | 71 | 1004.0 |
| 20260504034927 | 12 | 326 | 0.0 | 0.0 | 0.00 | 0.03 | 0.03 | 71 | 1004.0 |
| 20260504034421 | 12 | 326 | 0.0 | 0.0 | 0.00 | 0.03 | 0.03 | 71 | 1004.1 |
| 20260504033409 | 12 | 23 | 0.0 | 0.0 | 0.00 | 0.03 | 0.03 | 71 | 1004.1 |
| 20260504032904 | 12 | 24 | 0.0 | 0.0 | 0.00 | 0.03 | 0.03 | 70 | 1004.2 |
| 20260504032358 | 12 | 24 | 0.0 | 0.0 | 0.00 | 0.03 | 0.03 | 70 | 1004.2 |
| 20260504031346 | 13 | 24 | 0.0 | 0.0 | 0.00 | 0.03 | 0.03 | 69 | 1004.2 |
| 20260504030840 | 13 | 24 | 0.0 | 0.0 | 0.00 | 0.03 | 0.03 | 68 | 1004.2 |
| 20260504030334 | 13 | 24 | 0.0 | 0.0 | 0.00 | 0.03 | 0.03 | 67 | 1004.2 |
| 20260504025828 | 13 | 24 | 0.0 | 0.0 | 0.00 | 0.03 | 0.03 | 67 | 1004.3 |
| 20260504024815 | 13 | 24 | 0.0 | 0.0 | 0.00 | 0.03 | 0.03 | 66 | 1004.3 |
| 20260504024310 | 13 | 24 | 0.0 | 0.0 | 0.00 | 0.03 | 0.03 | 66 | 1004.3 |
| 20260504023804 | 13 | 24 | 0.0 | 0.0 | 0.00 | 0.03 | 0.03 | 65 | 1004.3 |
| 20260504023258 | 13 | 24 | 0.0 | 0.0 | 0.00 | 0.03 | 0.03 | 65 | 1004.3 |
| 20260504022752 | 13 | 24 | 0.0 | 0.0 | 0.00 | 0.03 | 0.03 | 65 | 1004.4 |
| 20260504022246 | 13 | 24 | 0.0 | 0.0 | 0.00 | 0.03 | 0.03 | 65 | 1004.4 |
| 20260504021233 | 13 | 24 | 0.0 | 0.0 | 0.00 | 0.03 | 0.03 | 64 | 1004.3 |
| 20260504020727 | 14 | 24 | 0.0 | 0.0 | 0.00 | 0.03 | 0.03 | 64 | 1004.2 |
| 20260504020221 | 14 | 24 | 0.0 | 0.0 | 0.00 | 0.03 | 0.03 | 63 | 1004.1 |
| 20260504015210 | 14 | 24 | 0.0 | 0.0 | 0.00 | 0.03 | 0.03 | 62 | 1004.1 |
| 20260504014703 | 15 | 24 | 0.0 | 0.0 | 0.00 | 0.03 | 0.03 | 62 | 1004.2 |
| 20260504014158 | 15 | 24 | 0.0 | 0.0 | 0.00 | 0.03 | 0.03 | 61 | 1004.1 |
| 20260504013651 | 15 | 24 | 0.0 | 0.0 | 0.00 | 0.03 | 0.03 | 60 | 1004.0 |
| 20260504013145 | 15 | 24 | 0.0 | 0.0 | 0.00 | 0.03 | 0.03 | 59 | 1004.0 |
| 20260504012640 | 15 | 24 | 0.0 | 0.0 | 0.00 | 0.03 | 0.03 | 58 | 1004.0 |
| 20260504012134 | 16 | 24 | 0.0 | 0.0 | 0.00 | 0.03 | 0.03 | 58 | 1004.0 |
| 20260504011627 | 16 | 24 | 0.0 | 0.0 | 0.00 | 0.03 | 0.03 | 57 | 1003.9 |
| 20260504011121 | 16 | 24 | 0.0 | 0.0 | 0.00 | 0.03 | 0.03 | 55 | 1003.8 |
| 20260504010616 | 16 | 24 | 0.0 | 0.0 | 0.00 | 0.03 | 0.03 | 55 | 1003.7 |
| 20260504010110 | 16 | 24 | 0.0 | 0.0 | 0.00 | 0.03 | 0.03 | 54 | 1003.7 |
| 20260504005603 | 17 | 25 | 0.0 | 0.0 | 0.00 | 0.03 | 0.03 | 53 | 1003.6 |
| 20260504005057 | 17 | 24 | 0.0 | 0.0 | 0.00 | 0.03 | 0.03 | 53 | 1003.6 |
| 20260504004551 | 17 | 25 | 0.0 | 0.0 | 0.00 | 0.03 | 0.03 | 52 | 1003.4 |
| 20260504004045 | 17 | 24 | 0.0 | 0.0 | 0.00 | 0.03 | 0.03 | 52 | 1003.6 |
| 20260504003539 | 18 | 25 | 0.0 | 0.0 | 0.00 | 0.03 | 0.03 | 51 | 1003.6 |
| 20260504003033 | 18 | 25 | 0.0 | 0.0 | 0.00 | 0.03 | 0.03 | 51 | 1003.6 |
| 20260504002528 | 18 | 25 | 0.0 | 0.0 | 0.00 | 0.03 | 0.03 | 50 | 1003.6 |
| 20260504001009 | 18 | 216 | 0.0 | 4.8 | 0.00 | 0.03 | 0.03 | 48 | 1003.6 |
| 20260504000504 | 19 | 217 | 0.0 | 4.8 | 0.00 | 0.03 | 0.03 | 49 | 1003.6 |
| 20260503235957 | 19 | 195 | 0.0 | 0.0 | 0.00 | 0.03 | 0.03 | 47 | 1003.6 |
| 20260503235451 | 19 | 193 | 0.0 | 0.0 | 0.00 | 0.03 | 0.03 | 47 | 1003.6 |
| 20260503234440 | 20 | 47 | 0.0 | 1.6 | 0.00 | 0.03 | 0.03 | 46 | 1003.7 |
| 20260503233934 | 20 | 249 | 1.6 | 8.0 | 0.00 | 0.03 | 0.03 | 45 | 1003.7 |
| 20260503233428 | 20 | 249 | 1.6 | 8.0 | 0.00 | 0.03 | 0.03 | 45 | 1003.7 |
| 20260503232921 | 20 | 247 | 0.0 | 6.4 | 0.00 | 0.03 | 0.03 | 44 | 1003.7 |
| 20260503232415 | 20 | 263 | 1.6 | 9.7 | 0.00 | 0.03 | 0.03 | 46 | 1003.7 |
| 20260503231910 | 20 | 295 | 1.6 | 12.9 | 0.00 | 0.03 | 0.03 | 45 | 1003.8 |
| 20260503231403 | 20 | 243 | 1.6 | 12.9 | 0.00 | 0.03 | 0.03 | 44 | 1003.9 |
| 20260503230858 | 20 | 208 | 1.6 | 8.0 | 0.00 | 0.03 | 0.03 | 46 | 1004.0 |
| 20260503230352 | 20 | 79 | 1.6 | 8.0 | 0.00 | 0.03 | 0.03 | 46 | 1003.9 |
| 20260503225846 | 20 | 242 | 1.6 | 17.7 | 0.00 | 0.03 | 0.03 | 46 | 1004.1 |
| 20260503225347 | 20 | 241 | 1.6 | 17.7 | 0.00 | 0.03 | 0.03 | 44 | 1004.1 |
| 20260503224846 | 20 | 294 | 1.6 | 6.4 | 0.00 | 0.03 | 0.03 | 45 | 1004.1 |
| 20260503224348 | 20 | 232 | 3.2 | 20.9 | 0.00 | 0.03 | 0.03 | 45 | 1004.2 |
| 20260503223847 | 20 | 226 | 3.2 | 20.9 | 0.00 | 0.03 | 0.03 | 43 | 1004.2 |
| 20260503223347 | 20 | 278 | 3.2 | 14.5 | 0.00 | 0.03 | 0.03 | 44 | 1004.2 |
| 20260503222847 | 20 | 274 | 4.8 | 14.5 | 0.00 | 0.03 | 0.03 | 44 | 1004.2 |
| 20260503222346 | 20 | 274 | 4.8 | 14.5 | 0.00 | 0.03 | 0.03 | 43 | 1004.2 |
| 20260503221847 | 20 | 285 | 4.8 | 14.5 | 0.00 | 0.03 | 0.03 | 42 | 1004.2 |
| 20260503221348 | 20 | 234 | 4.8 | 12.9 | 0.00 | 0.03 | 0.03 | 42 | 1004.0 |
| 20260503220847 | 20 | 273 | 3.2 | 12.9 | 0.00 | 0.03 | 0.03 | 43 | 1004.1 |
| 20260503220346 | 20 | 283 | 3.2 | 12.9 | 0.00 | 0.03 | 0.03 | 42 | 1004.0 |
| 20260503215847 | 20 | 305 | 4.8 | 14.5 | 0.00 | 0.03 | 0.03 | 44 | 1004.0 |
| 20260503215347 | 20 | 289 | 4.8 | 19.3 | 0.00 | 0.03 | 0.03 | 44 | 1004.0 |
| 20260503214846 | 20 | 235 | 4.8 | 20.9 | 0.00 | 0.03 | 0.03 | 44 | 1004.1 |
| 20260503214346 | 20 | 184 | 3.2 | 20.9 | 0.00 | 0.03 | 0.03 | 45 | 1004.0 |
| 20260503213347 | 20 | 121 | 1.6 | 9.7 | 0.00 | 0.03 | 0.03 | 44 | 1004.2 |
| 20260503212847 | 20 | 212 | 1.6 | 14.5 | 0.00 | 0.03 | 0.03 | 46 | 1004.3 |
| 20260503212345 | 19 | 212 | 1.6 | 14.5 | 0.00 | 0.03 | 0.03 | 44 | 1004.4 |
| 20260503211328 | 19 | 226 | 0.0 | 3.2 | 0.00 | 0.03 | 0.03 | 45 | 1004.6 |
| 20260503210823 | 19 | 200 | 0.0 | 4.8 | 0.00 | 0.03 | 0.03 | 46 | 1004.6 |
| 20260503210317 | 19 | 262 | 0.0 | 1.6 | 0.00 | 0.03 | 0.03 | 45 | 1004.7 |
| 20260503205811 | 18 | 213 | 0.0 | 4.8 | 0.00 | 0.03 | 0.03 | 45 | 1004.8 |
| 20260503205304 | 18 | 330 | 0.0 | 4.8 | 0.00 | 0.03 | 0.03 | 46 | 1005.0 |
| 20260503204758 | 18 | 218 | 0.0 | 4.8 | 0.00 | 0.03 | 0.03 | 44 | 1005.0 |
| 20260503204252 | 18 | 225 | 0.0 | 14.5 | 0.00 | 0.03 | 0.03 | 45 | 1005.1 |
| 20260503203747 | 18 | 151 | 0.0 | 14.5 | 0.00 | 0.03 | 0.03 | 44 | 1005.2 |
| 20260503202734 | 19 | 262 | 0.0 | 17.7 | 0.00 | 0.03 | 0.03 | 43 | 1005.3 |
| 20260503202228 | 18 | 212 | 0.0 | 8.0 | 0.00 | 0.03 | 0.03 | 44 | 1005.5 |
| 20260503201722 | 18 | 225 | 0.0 | 8.0 | 0.00 | 0.03 | 0.03 | 43 | 1005.6 |
| 20260503201216 | 18 | 187 | 0.0 | 3.2 | 0.00 | 0.03 | 0.03 | 44 | 1005.7 |
| 20260503200710 | 18 | 175 | 0.0 | 3.2 | 0.00 | 0.03 | 0.03 | 43 | 1005.8 |
| 20260503200205 | 18 | 148 | 0.0 | 4.8 | 0.00 | 0.03 | 0.03 | 44 | 1005.9 |
| 20260503195658 | 18 | 179 | 0.0 | 3.2 | 0.00 | 0.03 | 0.03 | 47 | 1006.0 |
| 20260503194646 | 18 | 188 | 0.0 | 9.7 | 0.00 | 0.03 | 0.03 | 50 | 1006.2 |
| 20260503193634 | 17 | 182 | 0.0 | 8.0 | 0.00 | 0.03 | 0.03 | 49 | 1006.5 |
| 20260503192623 | 17 | 180 | 0.0 | 4.8 | 0.00 | 0.03 | 0.03 | 52 | 1006.6 |
| 20260503192116 | 17 | 207 | 0.0 | 11.3 | 0.00 | 0.03 | 0.03 | 51 | 1006.7 |
| 20260503191610 | 17 | 207 | 0.0 | 11.3 | 0.00 | 0.03 | 0.03 | 52 | 1006.8 |
| 20260503190053 | 16 | 218 | 0.0 | 9.7 | 0.00 | 0.03 | 0.03 | 52 | 1006.9 |
| 20260503185548 | 16 | 183 | 0.0 | 8.0 | 0.00 | 0.03 | 0.03 | 50 | 1006.9 |
| 20260503185040 | 16 | 188 | 0.0 | 17.7 | 0.00 | 0.03 | 0.03 | 50 | 1006.8 |
| 20260503184534 | 16 | 181 | 0.0 | 17.7 | 0.00 | 0.03 | 0.03 | 50 | 1006.8 |
| 20260503184029 | 16 | 177 | 0.0 | 19.3 | 0.00 | 0.03 | 0.03 | 49 | 1006.8 |
| 20260503183522 | 16 | 176 | 1.6 | 19.3 | 0.00 | 0.03 | 0.03 | 48 | 1006.9 |
| 20260503183016 | 16 | 163 | 0.0 | 19.3 | 0.00 | 0.03 | 0.03 | 48 | 1006.8 |
| 20260503182511 | 16 | 164 | 1.6 | 19.3 | 0.00 | 0.03 | 0.03 | 50 | 1006.9 |
| 20260503182010 | 16 | 189 | 1.6 | 22.5 | 0.00 | 0.03 | 0.03 | 49 | 1006.9 |
| 20260503181459 | 16 | 170 | 1.6 | 22.5 | 0.00 | 0.03 | 0.03 | 49 | 1007.0 |
| 20260503180954 | 16 | 178 | 0.0 | 20.9 | 0.00 | 0.03 | 0.03 | 52 | 1007.2 |
| 20260503180453 | 16 | 217 | 0.0 | 20.9 | 0.00 | 0.03 | 0.03 | 51 | 1007.3 |
| 20260503175955 | 16 | 231 | 0.0 | 12.9 | 0.00 | 0.03 | 0.03 | 51 | 1007.4 |
| 20260503175453 | 16 | 144 | 0.0 | 12.9 | 0.00 | 0.03 | 0.03 | 51 | 1007.6 |
| 20260503174954 | 15 | 222 | 0.0 | 17.7 | 0.00 | 0.03 | 0.03 | 52 | 1007.7 |
| 20260503174453 | 15 | 175 | 0.0 | 17.7 | 0.00 | 0.03 | 0.03 | 53 | 1007.8 |
| 20260503173452 | 15 | 205 | 1.6 | 22.5 | 0.00 | 0.03 | 0.03 | 54 | 1008.2 |
| 20260503172951 | 15 | 176 | 3.2 | 22.5 | 0.00 | 0.03 | 0.03 | 56 | 1008.3 |
| 20260503172447 | 15 | 191 | 4.8 | 22.5 | 0.00 | 0.03 | 0.03 | 56 | 1008.4 |
| 20260503171945 | 14 | 188 | 6.4 | 22.5 | 0.00 | 0.03 | 0.03 | 59 | 1008.7 |
| 20260503170947 | 13 | 279 | 8.0 | 22.5 | 0.00 | 0.03 | 0.03 | 61 | 1008.9 |
| 20260503150914 | 12 | 186 | 0.0 | 4.8 | 0.00 | 0.00 | 0.00 | 61 | 1011.4 |
| 20260503150413 | 12 | 201 | 0.0 | 4.8 | 0.00 | 0.00 | 0.00 | 59 | 1011.3 |
| 20260503131235 | 10 | 235 | 0.0 | 1.6 | 0.00 | 0.00 | 0.00 | 60 | 1012.3 |
| 20260503130730 | 10 | 224 | 0.0 | 0.0 | 0.00 | 0.00 | 0.00 | 61 | 1012.4 |
| 20260503130223 | 10 | 195 | 0.0 | 0.0 | 0.00 | 0.00 | 0.00 | 62 | 1012.3 |
| 20260503120111 | 8 | 175 | 0.0 | 0.0 | 0.00 | 0.00 | 0.00 | 66 | 1012.1 |
| 20260503110534 | 7 | 143 | 0.0 | 0.0 | 0.00 | 0.00 | 0.00 | 64 | 1011.7 |